[Date Prev][Date Next][Thread Prev][Thread Next] - [Date Index][Thread Index][Author Index]

2 Line ISS Keps 6-9



ISS
1 25544U 98067A   02160.46307870  .00022491  00000-0  27008-3 0  5459
2 25544  51.6368  91.7184 0005979 164.3556 344.8807 15.60777683202829


----
Via the sarex mailing list at AMSAT.ORG courtesy of AMSAT-NA.
To unsubscribe, send "unsubscribe sarex" to Majordomo@amsat.org



AMSAT Top AMSAT Home